Flag for Germany Weather past 2 weeks in Forchheim, Bavaria, Germany

Now
32 °F

Fog.


Feels Like: 32 °F
Forecast: 33 / 38 °F
Wind: 1 mph from East

Location: Bamberg

Current Time: Jan 28, 2015 at 12:04:48 AM

Latest Report: Jan 27, 2015 at 11:00 PM


Visibility: 4 mi

Pressure: 30.18 "Hg

Humidity: 96%

Dew point: 31 °F

Location of ForchheimLocation

Historic Weather in Forchheim — Graph

°F

Forchheim temperature yesterday

Maximum temperature yesterday: 38 °F (at 2:00 PM)
Minimum temperature yesterday: 32 °F (at 1:00 AM)
Average temperature yesterday: 35 °F

Past Weeks' High & Low Weather Summary

 TemperatureHumidityPressure
High53 °F (Jan 13, 3:00 PM)100% (Jan 18, 1:00 AM)30.41 "Hg (Jan 18, 1:00 AM)
Low27 °F (Jan 21, 8:00 AM)38% (Jan 13, 12:00 PM)29.73 "Hg (Jan 16, 10:00 PM)
Average36 °F84%30.03 "Hg
* Reported Jan 12 11:00 PM — Jan 27 11:00 PM, Forchheim, Weather by CustomWeather, © 2014

Note: Actual official high and low records may vary slightly from our data, if they occured in-between our weather recording intervals... More about our weather records

Advertising

Forchheim weather history for previous 24 hours

 ConditionsComfort  
Time TempWeatherWind HumidityBarometerVisibility
11:00 PM
Jan 27
32 °FFog.1 mph96%30.18 "Hg4 mi
10:00 PM34 °FOvercast.1 mph92%30.18 "Hg8 mi
9:00 PM33 °FOvercast.1 mph94%30.19 "Hg6 mi
8:00 PM33 °FPassing clouds.1 mph91%30.18 "Hg7 mi
7:00 PM36 °FPassing clouds.2 mph85%30.16 "Hg16 mi
6:00 PM36 °FOvercast.2 mph84%30.16 "Hg19 mi
5:00 PM37 °FOvercast.2 mph81%30.14 "Hg22 mi
4:00 PM37 °FPassing clouds.3 mph80%30.13 "Hg22 mi
3:00 PM38 °FPartly sunny.3 mph77%30.12 "Hg25 mi
2:00 PM38 °FOvercast.2 mph77%30.13 "Hg31 mi
1:00 PM37 °FOvercast.3 mph81%30.13 "Hg19 mi
12:00 PM36 °FOvercast.3 mph84%30.14 "Hg17 mi
11:00 AM36 °FOvercast.3 mph84%30.14 "Hg19 mi
10:00 AM35 °FOvercast.3 mph85%30.14 "Hg22 mi
9:00 AM35 °FDrizzle. Overcast.3 mph91%30.13 "Hg9 mi
8:00 AM35 °FOvercast.2 mph89%30.12 "Hg14 mi
7:00 AM35 °FDrizzle. Low clouds.2 mph89%30.11 "Hg14 mi
6:00 AM35 °FOvercast.2 mph90%30.09 "Hg12 mi
5:00 AM35 °FDrizzle. Overcast.2 mph91%30.08 "Hg11 mi
4:00 AM33 °FFog.1 mph97%30.07 "Hg2 mi
3:00 AM33 °FOvercast.1 mph97%30.07 "Hg2 mi
2:00 AM33 °FPassing clouds.1 mph96%30.06 "Hg9 mi
1:00 AM32 °FLow clouds.1 mph97%30.06 "Hg2 mi
12:00 AM33 °FLight freezing rain. Low clouds.1 mph98%30.06 "Hg1 mi
Weather by CustomWeather, © 2014

See weather overviewHow to use our weather pages